Weather History for KHRX - January, 2014

Change the Weather History Date:

Wednesday, January 1, 2014

  Actual Average (KAMA) Record (KAMA)
Temperature  
Mean Temperature 41 °F 36 °F  
Max Temperature 60 °F 49 °F 76 °F (1910)
Min Temperature 21 °F 23 °F -8 °F (1919)
Degree Days  
Heating Degree Days 24 29  
Month to date heating degree days 29  
Since 1 July heating degree days 1746  
Cooling Degree Days 0 0  
Month to date cooling degree days 0  
Year to date cooling degree days 0  
Moisture  
Dew Point 23 °F    
Average Humidity 52    
Maximum Humidity 87    
Minimum Humidity 22    
Precipitation  
Precipitation 0.00 in 0.02 in 0.30 in (1999)
Month to date precipitation 0.02  
Year to date precipitation 0.02  
Snow  
Snow 0.00 in 0.10 in 2.50 in (1936)
Month to date snowfall 0.1  
Since 1 July snowfall 6.5  
Snow Depth -    
Sea Level Pressure  
Sea Level Pressure 30.04 in    
Wind  
Wind Speed 16 mph (NW)    
Max Wind Speed 33 mph    
Max Gust Speed 41 mph    
Visibility 10 miles    
Events      
T = Trace of Precipitation, MM = Missing Value Source: NWS Daily Summary

Daily Weather History Graph

Daily Weather History Graph

Search for Another Location

Airport or City:

Trip Planner

Search our weather history database for the weather conditions in past years. The results will help you decide how hot, cold, wet, or windy it might be!

Date:

Astronomy

Jan. 01, 2014 Rise Set
Actual Time 7:56 AM CST 5:49 PM CST
Civil Twilight 7:29 AM CST 6:17 PM CST
Nautical Twilight 6:57 AM CST 6:48 PM CST
Astronomical Twilight 6:26 AM CST 7:19 PM CST
Moon 7:51 AM CST (1/1) 6:33 PM CST (1/1)
Length of Visible Light 10h 48m
Length of Day
9h 52m
New Moon, 0% of the Moon is Illuminated
Jan 1
New Moon
Jan 7
First Quarter
Jan 15
Full
Jan 23
Last Quarter
Jan 30
New

Hourly Weather History & Observations

Time (CST) Temp. Windchill Dew Point Humidity Pressure Visibility Wind Dir Wind Speed Gust Speed Precip Events Conditions
12:15 AM 40.1 °F 33.2 °F 20.1 °F 45% 29.95 in 10.0 mi SW 11.5 mph - N/A   Clear
12:35 AM 40.5 °F 31.8 °F 19.9 °F 44% 29.95 in 10.0 mi WSW 17.3 mph - N/A   Clear
12:55 AM 41.4 °F 33.6 °F 19.4 °F 41% 29.95 in 10.0 mi WSW 15.0 mph - N/A   Clear
1:15 AM 41.0 °F 32.8 °F 19.0 °F 41% 29.94 in 10.0 mi WSW 16.1 mph - N/A   Clear
1:35 AM 40.1 °F 33.2 °F 19.2 °F 43% 29.94 in 10.0 mi WSW 11.5 mph - N/A   Clear
1:55 AM 39.7 °F 31.2 °F 18.9 °F 43% 29.93 in 10.0 mi WSW 16.1 mph - N/A   Clear
2:15 AM 39.2 °F 31.2 °F 19.0 °F 44% 29.93 in 10.0 mi WSW 13.8 mph - N/A   Clear
2:35 AM 39.4 °F 30.7 °F 19.4 °F 45% 29.93 in 10.0 mi WSW 16.1 mph - N/A   Clear
2:55 AM 39.4 °F 31.1 °F 19.2 °F 44% 29.93 in 10.0 mi West 15.0 mph - N/A   Clear
3:15 AM 37.2 °F 28.3 °F 19.4 °F 49% 29.93 in 10.0 mi WSW 15.0 mph - N/A   Clear
3:35 AM 34.3 °F 25.5 °F 19.4 °F 54% 29.93 in 10.0 mi West 12.7 mph - N/A   Clear
3:55 AM 33.1 °F 23.4 °F 19.6 °F 58% 29.92 in 10.0 mi West 13.8 mph - N/A   Clear
4:15 AM 33.4 °F 23.5 °F 19.9 °F 58% 29.91 in 10.0 mi West 15.0 mph - N/A   Clear
4:35 AM 35.6 °F 26.6 °F 20.3 °F 54% 29.91 in 10.0 mi WSW 13.8 mph - N/A   Clear
4:55 AM 35.2 °F 26.2 °F 20.3 °F 55% 29.91 in 10.0 mi WSW 13.8 mph - N/A   Clear
5:15 AM 34.5 °F 25.7 °F 20.7 °F 57% 29.91 in 10.0 mi WSW 12.7 mph - N/A   Clear
5:35 AM 33.1 °F 23.9 °F 20.5 °F 60% 29.91 in 10.0 mi West 12.7 mph - N/A   Clear
5:55 AM 32.0 °F 24.8 °F 20.3 °F 62% 29.91 in 10.0 mi WNW 8.1 mph - N/A   Clear
6:15 AM 31.8 °F 23.9 °F 20.3 °F 62% 29.91 in 10.0 mi West 9.2 mph - N/A   Clear
6:35 AM 29.5 °F 25.9 °F 20.1 °F 68% 29.91 in 10.0 mi WSW 3.5 mph - N/A   Clear
6:55 AM 31.3 °F 22.7 °F 20.5 °F 64% 29.91 in 10.0 mi SW 10.4 mph - N/A   Clear
7:15 AM 32.0 °F 23.6 °F 20.8 °F 63% 29.91 in 10.0 mi WSW 10.4 mph - N/A   Clear
7:35 AM 33.6 °F 26.2 °F 21.2 °F 60% 29.91 in 10.0 mi WSW 9.2 mph - N/A   Clear
7:55 AM 34.3 °F 26.5 °F 21.0 °F 58% 29.91 in 10.0 mi WSW 10.4 mph - N/A   Clear
8:15 AM 36.0 °F 26.7 °F 20.5 °F 53% 29.92 in 10.0 mi West 15.0 mph - N/A   Clear
8:35 AM 35.8 °F 27.8 °F 20.7 °F 54% 29.92 in 10.0 mi West 11.5 mph - N/A   Clear
8:55 AM 37.4 °F 29.3 °F 21.0 °F 52% 29.93 in 10.0 mi West 12.7 mph - N/A   Clear
9:15 AM 39.7 °F 33.2 °F 21.6 °F 48% 29.93 in 10.0 mi West 10.4 mph - N/A   Clear
9:35 AM 42.4 °F 35.3 °F 21.2 °F 43% 29.93 in 10.0 mi West 13.8 mph - N/A   Clear
9:55 AM 45.0 °F 37.9 °F 22.3 °F 41% 29.93 in 10.0 mi West 16.1 mph - N/A   Clear
10:15 AM 49.5 °F - 22.1 °F 34% 29.94 in 10.0 mi West 15.0 mph 18.4 mph N/A   Clear
10:35 AM 52.3 °F - 22.1 °F 31% 29.94 in 10.0 mi West 16.1 mph - N/A   Clear
10:55 AM 55.8 °F - 22.5 °F 28% 29.94 in 10.0 mi WNW 23.0 mph - N/A   Clear
11:15 AM 57.7 °F - 22.8 °F 26% 29.95 in 10.0 mi WNW 18.4 mph 23.0 mph N/A   Clear
11:35 AM 59.2 °F - 22.6 °F 25% 29.95 in 10.0 mi WNW 18.4 mph - N/A   Clear
11:55 AM 59.5 °F - 22.5 °F 24% 29.95 in 10.0 mi NW 18.4 mph 27.6 mph N/A   Clear
12:15 PM 60.4 °F - 22.3 °F 23% 29.96 in 10.0 mi NW 28.8 mph 33.4 mph N/A   Clear
12:35 PM 60.3 °F - 21.2 °F 22% 29.96 in 10.0 mi North 29.9 mph 35.7 mph N/A   Clear
12:55 PM 59.2 °F - 22.3 °F 24% 29.96 in 10.0 mi North 29.9 mph 38.0 mph N/A   Clear
1:15 PM 59.0 °F - 24.6 °F 27% 29.97 in 10.0 mi North 32.2 mph 38.0 mph N/A   Clear
1:35 PM 58.1 °F - 24.8 °F 28% 29.97 in 10.0 mi North 33.4 mph 41.4 mph N/A   Clear
1:55 PM 56.7 °F - 22.1 °F 26% 29.99 in 10.0 mi North 28.8 mph 41.4 mph N/A   Clear
2:15 PM 54.7 °F - 21.9 °F 28% 30.00 in 10.0 mi North 29.9 mph 40.3 mph N/A   Clear
2:35 PM 53.2 °F - 21.7 °F 29% 30.01 in 10.0 mi North 26.5 mph 38.0 mph N/A   Clear
2:55 PM 53.4 °F - 24.3 °F 32% 30.02 in 10.0 mi North 26.5 mph 34.5 mph N/A   Clear
3:15 PM 53.1 °F - 26.6 °F 36% 30.03 in 10.0 mi NNE 26.5 mph 32.2 mph N/A   Clear
3:35 PM 52.3 °F - 27.0 °F 37% 30.04 in 10.0 mi NNE 26.5 mph 33.4 mph N/A   Clear
3:55 PM 51.6 °F - 28.2 °F 41% 30.05 in 10.0 mi NNE 24.2 mph 33.4 mph N/A   Clear
4:15 PM 50.9 °F - 29.3 °F 43% 30.06 in 10.0 mi North 21.9 mph 31.1 mph N/A   Clear
4:35 PM 51.1 °F - 30.0 °F 44% 30.07 in 10.0 mi NNE 23.0 mph 31.1 mph N/A   Clear
4:55 PM 50.9 °F - 30.6 °F 46% 30.08 in 10.0 mi North 23.0 mph 31.1 mph N/A   Clear
5:15 PM 49.6 °F - 29.5 °F 46% 30.09 in 10.0 mi North 25.3 mph 35.7 mph N/A   Clear
5:35 PM 47.8 °F - 28.9 °F 48% 30.09 in 10.0 mi North 18.4 mph 26.5 mph N/A   Clear
5:55 PM 46.2 °F 39.5 °F 28.9 °F 51% 30.12 in 10.0 mi North 16.1 mph 26.5 mph N/A   Clear
6:15 PM 44.4 °F 35.5 °F 30.7 °F 59% 30.14 in 10.0 mi North 24.2 mph 28.8 mph N/A   Clear
6:35 PM 40.1 °F 31.3 °F 27.7 °F 61% 30.18 in 10.0 mi NNE 17.3 mph 28.8 mph N/A   Clear
6:55 PM 37.8 °F 28.0 °F 28.4 °F 69% 30.21 in 10.0 mi NNE 18.4 mph 24.2 mph N/A   Clear
7:15 PM 35.6 °F 24.5 °F 27.7 °F 73% 30.23 in 10.0 mi North 20.7 mph 27.6 mph N/A   Clear
7:35 PM 34.0 °F 23.8 °F 26.4 °F 74% 30.26 in 10.0 mi NNE 16.1 mph 23.0 mph N/A   Clear
7:55 PM 32.9 °F 21.3 °F 25.7 °F 75% 30.26 in 10.0 mi North 19.6 mph 25.3 mph N/A   Clear
8:15 PM 32.4 °F 20.3 °F 25.5 °F 76% 30.27 in 10.0 mi North 20.7 mph - N/A   Clear
8:35 PM 32.0 °F 21.2 °F 25.3 °F 76% 30.28 in 10.0 mi North 16.1 mph 23.0 mph N/A   Clear
8:55 PM 31.1 °F 20.1 °F 24.8 °F 77% 30.29 in 10.0 mi NNE 16.1 mph 20.7 mph N/A   Clear
9:15 PM 30.7 °F 18.8 °F 24.1 °F 76% 30.29 in 10.0 mi NNE 18.4 mph 27.6 mph N/A   Clear
9:35 PM 29.8 °F 18.0 °F 23.9 °F 79% 30.31 in 10.0 mi NNE 17.3 mph - N/A   Scattered Clouds
9:55 PM 29.1 °F 18.9 °F 23.4 °F 79% 30.32 in 10.0 mi NNE 12.7 mph - N/A   Clear
10:15 PM 27.5 °F 18.0 °F 22.8 °F 83% 30.32 in 10.0 mi North 10.4 mph - N/A   Clear
10:35 PM 26.4 °F 18.0 °F 22.1 °F 84% 30.33 in 10.0 mi North 8.1 mph - N/A   Clear
10:55 PM 25.3 °F 21.1 °F 21.6 °F 86% 30.35 in 10.0 mi North 3.5 mph - N/A   Clear
11:15 PM 23.0 °F 18.4 °F 19.4 °F 86% 30.35 in 10.0 mi North 3.5 mph - N/A   Clear
11:35 PM 22.1 °F 17.4 °F 18.9 °F 87% 30.36 in 10.0 mi NW 3.5 mph - N/A   Clear
11:55 PM 21.0 °F 16.2 °F 17.2 °F 85% 30.36 in 10.0 mi NNW 3.5 mph - N/A   Clear